Tiempo cada hora Abakaliki

Hoy, 28 Octubre, Miércoles

Tiempo Temperatura Precipitaciones Viento Presión Humedad
00:00 +26°C° 0 mm 2 mps 751 mmHg 88%
01:00 +26°C° 0 mm 2 mps 750 mmHg 88%
02:00 +26°C° 0 mm 2 mps 750 mmHg 90%
03:00 +25°C° 0 mm 2 mps 750 mmHg 91%
04:00 +25°C° 0 mm 2 mps 750 mmHg 93%
05:00 +25°C° 0 mm 2 mps 750 mmHg 93%
06:00 +25°C° 0 mm 2 mps 751 mmHg 94%
07:00 +26°C° 0 mm 2 mps 751 mmHg 94%
08:00 +27°C° 0 mm 2 mps 751 mmHg 88%
09:00 +29°C° 0 mm 2 mps 752 mmHg 82%
10:00 +30°C° 0 mm 2 mps 752 mmHg 77%
11:00 +31°C° 0 mm 1 mps 751 mmHg 73%
12:00 +32°C° 0 mm 1 mps 750 mmHg 68%
13:00 +31°C° 0 mm 0 mps 750 mmHg 64%
14:00 +33°C° 0 mm 1 mps 749 mmHg 63%
15:00 +33°C° 0 mm 1 mps 748 mmHg 61%
16:00 +34°C° 0 mm 2 mps 748 mmHg 59%
17:00 +32°C° 0.2 mm 1 mps 748 mmHg 64%
18:00 +30°C° 0.2 mm 1 mps 749 mmHg 69%
19:00 +29°C° 0.2 mm 1 mps 750 mmHg 74%
20:00 +28°C° 0.1 mm 2 mps 750 mmHg 77%
21:00 +28°C° 0.1 mm 2 mps 751 mmHg 81%
22:00 +27°C° 0.1 mm 3 mps 752 mmHg 84%
23:00 +27°C° 0.2 mm 3 mps 751 mmHg 86%

Mañana, 29 Octubre, Jueves

Tiempo Temperatura Precipitaciones Viento Presión Humedad
00:00 +26°C° 0.2 mm 3 mps 751 mmHg 88%
01:00 +26°C° 0.2 mm 3 mps 751 mmHg 90%
02:00 +26°C° 0 mm 3 mps 751 mmHg 92%
03:00 +25°C° 0 mm 2 mps 751 mmHg 94%
04:00 +25°C° 0 mm 2 mps 750 mmHg 95%
05:00 +25°C° 0 mm 2 mps 751 mmHg 95%
06:00 +25°C° 0 mm 2 mps 751 mmHg 95%
07:00 +25°C° 0 mm 1 mps 752 mmHg 95%
08:00 +27°C° 0 mm 2 mps 752 mmHg 90%
09:00 +28°C° 0 mm 2 mps 752 mmHg 84%
10:00 +29°C° 0 mm 2 mps 752 mmHg 79%
11:00 +30°C° 0 mm 2 mps 752 mmHg 77%
12:00 +30°C° 0 mm 2 mps 751 mmHg 76%
13:00 +31°C° 0 mm 2 mps 750 mmHg 74%
14:00 +31°C° 0 mm 2 mps 750 mmHg 72%
15:00 +32°C° 0 mm 2 mps 749 mmHg 70%
16:00 +32°C° 0 mm 1 mps 749 mmHg 68%
17:00 +31°C° 0.1 mm 1 mps 749 mmHg 72%
18:00 +30°C° 0.1 mm 1 mps 750 mmHg 76%
19:00 +29°C° 0.1 mm 2 mps 751 mmHg 80%
20:00 +28°C° 1.7 mm 2 mps 751 mmHg 84%
21:00 +27°C° 1.7 mm 3 mps 752 mmHg 87%
22:00 +26°C° 1.7 mm 4 mps 752 mmHg 90%
23:00 +26°C° 0 mm 3 mps 752 mmHg 92%

Pasado mañana, 30 Octubre, Viernes

Tiempo Temperatura Precipitaciones Viento Presión Humedad
00:00 +26°C° 0 mm 2 mps 752 mmHg 93%
01:00 +26°C° 0 mm 2 mps 752 mmHg 94%
02:00 +26°C° 0 mm 2 mps 751 mmHg 94%
03:00 +26°C° 0 mm 1 mps 751 mmHg 95%
04:00 +25°C° 0 mm 1 mps 751 mmHg 95%
05:00 +26°C° 0 mm 1 mps 751 mmHg 95%
06:00 +26°C° 0 mm 1 mps 752 mmHg 94%
07:00 +26°C° 0 mm 1 mps 752 mmHg 94%
08:00 +27°C° 0 mm 1 mps 752 mmHg 88%
09:00 +29°C° 0 mm 2 mps 753 mmHg 82%
10:00 +30°C° 0 mm 2 mps 753 mmHg 76%
11:00 +31°C° 0 mm 2 mps 752 mmHg 74%
12:00 +31°C° 0 mm 2 mps 751 mmHg 71%
13:00 +32°C° 0 mm 2 mps 751 mmHg 69%
14:00 +32°C° 0 mm 1 mps 750 mmHg 67%
15:00 +32°C° 0 mm 1 mps 750 mmHg 65%
16:00 +31°C° 0 mm 0 mps 749 mmHg 63%
17:00 +29°C° 0 mm 0 mps 750 mmHg 67%
18:00 +28°C° 0 mm 0 mps 750 mmHg 71%
19:00 +29°C° 0 mm 1 mps 751 mmHg 76%
20:00 +28°C° 0.2 mm 1 mps 751 mmHg 80%
21:00 +28°C° 0.2 mm 2 mps 752 mmHg 83%
22:00 +27°C° 0.2 mm 3 mps 752 mmHg 87%
23:00 +27°C° 0 mm 3 mps 752 mmHg 89%

31 Octubre, Sábado

Tiempo Temperatura Precipitaciones Viento Presión Humedad
00:00 +26°C° 0 mm 3 mps 752 mmHg 92%
01:00 +26°C° 0 mm 3 mps 751 mmHg 94%
02:00 +26°C° 0 mm 3 mps 751 mmHg 95%
03:00 +25°C° 0 mm 2 mps 751 mmHg 96%
04:00 +25°C° 0 mm 2 mps 751 mmHg 97%
05:00 +25°C° 0 mm 2 mps 751 mmHg 96%
06:00 +25°C° 0 mm 2 mps 752 mmHg 96%
07:00 +26°C° 0 mm 2 mps 752 mmHg 96%
08:00 +27°C° 0 mm 2 mps 752 mmHg 90%
09:00 +28°C° 0 mm 2 mps 753 mmHg 85%
10:00 +29°C° 0 mm 2 mps 753 mmHg 80%
11:00 +30°C° 0.1 mm 2 mps 752 mmHg 77%
12:00 +31°C° 0.1 mm 2 mps 751 mmHg 73%
13:00 +32°C° 0.1 mm 2 mps 750 mmHg 69%
14:00 +32°C° 0 mm 2 mps 750 mmHg 68%
15:00 +32°C° 0 mm 1 mps 749 mmHg 68%
16:00 +32°C° 0 mm 1 mps 749 mmHg 67%
17:00 +31°C° 0.3 mm 1 mps 749 mmHg 72%
18:00 +29°C° 0.3 mm 2 mps 750 mmHg 78%
19:00 +28°C° 0.3 mm 2 mps 750 mmHg 83%
20:00 +28°C° 0.8 mm 2 mps 751 mmHg 86%
21:00 +27°C° 0.8 mm 2 mps 751 mmHg 89%
22:00 +26°C° 0.8 mm 3 mps 752 mmHg 91%
23:00 +26°C° 0 mm 3 mps 752 mmHg 93%

1 Noviembre, Domingo

Tiempo Temperatura Precipitaciones Viento Presión Humedad
00:00 +26°C° 0 mm 3 mps 751 mmHg 94%
01:00 +26°C° 0 mm 3 mps 751 mmHg 95%
02:00 +26°C° 0 mm 3 mps 751 mmHg 95%
03:00 +25°C° 0 mm 2 mps 751 mmHg 96%
04:00 +25°C° 0 mm 2 mps 751 mmHg 96%
05:00 +25°C° 0 mm 2 mps 751 mmHg 96%
06:00 +25°C° 0 mm 2 mps 751 mmHg 96%
07:00 +25°C° 0 mm 2 mps 752 mmHg 95%
08:00 +27°C° 0 mm 2 mps 752 mmHg 89%
09:00 +28°C° 0 mm 2 mps 752 mmHg 83%
10:00 +29°C° 0 mm 2 mps 753 mmHg 77%
11:00 +30°C° 0 mm 3 mps 752 mmHg 75%
12:00 +31°C° 0 mm 3 mps 751 mmHg 73%
13:00 +31°C° 0 mm 3 mps 750 mmHg 70%
14:00 +31°C° 0 mm 3 mps 750 mmHg 72%
15:00 +30°C° 0 mm 3 mps 750 mmHg 74%
16:00 +30°C° 0 mm 2 mps 749 mmHg 76%
17:00 +29°C° 0 mm 2 mps 749 mmHg 79%
18:00 +28°C° 0 mm 2 mps 750 mmHg 82%
19:00 +27°C° 0 mm 1 mps 750 mmHg 85%
20:00 +27°C° 0 mm 1 mps 750 mmHg 86%
21:00 +27°C° 0 mm 1 mps 751 mmHg 87%
22:00 +26°C° 0 mm 1 mps 751 mmHg 89%
23:00 +26°C° 0.1 mm 1 mps 751 mmHg 89%

2 Noviembre, Lunes

Tiempo Temperatura Precipitaciones Viento Presión Humedad
00:00 +26°C° 0.1 mm 1 mps 751 mmHg 90%
01:00 +26°C° 0.1 mm 1 mps 751 mmHg 90%
02:00 +26°C° 0.1 mm 2 mps 751 mmHg 89%
03:00 +26°C° 0.1 mm 2 mps 750 mmHg 88%
04:00 +26°C° 0.1 mm 2 mps 750 mmHg 87%
05:00 +26°C° 0 mm 1 mps 751 mmHg 88%
06:00 +26°C° 0 mm 1 mps 751 mmHg 90%
07:00 +24°C° 0 mm 0 mps 751 mmHg 91%
08:00 +25°C° 0 mm 0 mps 751 mmHg 85%
09:00 +27°C° 0 mm 0 mps 752 mmHg 78%
10:00 +30°C° 0 mm 1 mps 752 mmHg 72%
11:00 +31°C° 0 mm 1 mps 751 mmHg 70%
12:00 +32°C° 0 mm 1 mps 751 mmHg 68%
13:00 +32°C° 0 mm 1 mps 750 mmHg 66%
14:00 +32°C° 0 mm 1 mps 749 mmHg 64%
15:00 +32°C° 0 mm 1 mps 749 mmHg 63%
16:00 +31°C° 0 mm 0 mps 748 mmHg 62%
17:00 +31°C° 2.1 mm 1 mps 749 mmHg 69%
18:00 +30°C° 2.1 mm 1 mps 749 mmHg 77%
19:00 +28°C° 2.1 mm 2 mps 750 mmHg 84%
20:00 +27°C° 0.9 mm 2 mps 750 mmHg 87%
21:00 +27°C° 0.9 mm 2 mps 751 mmHg 89%
22:00 +26°C° 0.9 mm 3 mps 752 mmHg 92%
23:00 +26°C° 0.4 mm 2 mps 751 mmHg 92%
Mostrar más

Necesitamos Su Consentimiento

Meteoprog y nuestros Proveedores de Servicios pueden almacenar y acceder a sus datos personales como cookies, identificadores de dispositivo u otras tecnologías similares de su dispositivo y procesar dichos datos para personalizar contenido y anuncios, además de ofrecer funciones de redes sociales y analizar el tráfico.

  • Almacenar y/o acceder a información en su dispositivo

    Se puede almacenar o acceder a cookies, identificadores de dispositivo u otra información de su dispositivo para los fines anteriormente indicados.

  • Anuncios y contenido personalizados, medición de anuncios y contenido, percepciones del público, y desarrollo de productos

    Los anuncios y el contenido pueden personalizarse en base a su perfil. Se pueden añadir más datos para personalizar mejor los anuncios y contenidos. Se puede medir el rendimiento de los anuncios y contenidos. Se puede obtener la percepción sobre el público que ha visto los anuncios y contenidos. Dichos datos pueden usarse para desarrollar o mejorar la experiencia del usuario, sistemas y software.

Al hacer clic en ‘Estoy De Acuerdo’ usted permitirá el uso de las cookies, identificadores de dispositivo, balizas web u otras tecnologías similares indicadas. Su configuración puede cambiarse desde el navegador de su dispositivo.

Para ciertos fines, los intereses legítimos pueden ser considerados por encima del consentimiento. Puede leer más sobre ello en nuestra Política de Privacidad y Cookies.